SCP
0 0 0 0 0 -0 0 0 0 0 -0 0 0 0 0 0 0 0 0 -0 0 0 0 0 0 -0 -0 -0 -0 -0 -0 0
0 0 0 0 0 0 -0 -0 -0 0 0 0 -0 0 0 -0 -0 0 0 0 0 -0 0 0 -0 -0 -0 -0 -0 -0 0 0
0 0 0 0 0 0 0 -0 -0 0 0 0 -0 0 -0 -0 -0 0 0 0 0 0 -0 -0 0 0 -0 -0 -0 -0 -0 -1
0 0 0 0 0 0 0 -0 -0 0 0 0 0 -0 -0 -0 -0 -0 0 0 0 0 0 0 0 0 -0 -0 -0 -0 -0 -0
0 0 0 0 0 0 0 0 -0 -0 0 0 0 0 0 0 0 0 0 0 0 0 0 0 0 0 -0 -0 -0 -0 0 -0
0 0 0 0 0 0 0 0 0 -0 0 0 0 0 0 0 0 0 0 0 0 0 -0 0 0 0 0 0 -0 -0 0 0
0 0 0 0 0 0 0 0 -0 0 -0 0 0 0 0 0 0 0 0 0 0 0 0 0 0 0 1 0 0 0 -0 0
0 0 0 0 0 0 0 0 0 0 0 0 0 0 0 0 0 0 0 0 0 0 0 0 0 0 0 1 0 0 0 -0
0 0 0 0 0 0 0 0 0 0 0 0 0 0 0 0 0 -0 0 0 0 0 0 0 0 0 0 1 1 0 0 0
0 0 0 0 0 0 0 0 0 0 0 0 0 0 0 0 0 0 0 0 0 0 0 0 0 0 0 1 2 1 1 0
0 0 0 0 0 0 0 0 0 0 0 0 0 0 0 -0 -0 0 0 0 0 0 0 0 0 0 0 1 1 1 1 0
0 0 0 0 0 0 0 0 0 0 0 0 0 0 0 -0 -0 0 0 0 0 0 0 0 0 0 0 0 1 2 2 1
0 0 0 0 0 0 0 0 0 0 0 0 0 0 0 0 0 0 0 0 0 0 0 0 0 0 0 0 0 0 1 0
0 0 0 0 0 0 0 0 0 0 0 0 0 0 0 0 0 -0 -0 0 0 0 0 0 0 1 1 1 1 1 1 1
0 0 0 0 0 0 0 0 0 0 0 0 0 0 0 0 0 0 -0 -0 0 0 0 1 1 1 1 2 2 2 2 2
0 0 0 0 0 0 0 0 0 0 0 0 0 0 0 0 0 0 0 0 0 0 1 1 2 2 1 2 2 2 2 3
0 0 0 0 0 0 0 0 0 0 0 0 0 0 0 0 1 0 0 0 0 0 1 2 3 3 2 2 1 1 2 3
0 0 0 0 0 0 0 0 0 0 0 0 0 -0 -0 0 0 -0 0 1 1 3 3 3 3 4 7 4 2 2 2 2
-0 0 0 0 0 0 0 0 0 0 0 0 0 0 -0 -1 -0 0 -0 1 2 4 5 5 5 5 3 5 4 4 4 3
Wind_Speed_500mb
40 45 48 50 51 55 23 11 16 29 38 32 27 42 51 57 47 48 55 65 72 77 80 77 76 82 89 95 92 89 89 88
49 54 51 40 51 42 30 33 38 25 38 26 44 45 43 46 53 52 56 61 68 69 75 80 79 80 84 90 89 91 92 92
46 52 57 45 36 48 35 33 24 22 25 32 36 34 46 45 58 55 54 57 63 68 70 77 78 73 80 83 90 89 87 93
52 39 51 56 48 57 27 45 38 29 16 13 13 32 36 44 54 54 53 52 54 57 58 62 72 76 79 82 82 89 93 89
29 41 46 56 56 50 49 32 42 34 11 15 13 2 8 21 33 43 43 42 45 46 52 59 65 74 76 77 83 79 80 90
37 34 38 55 59 56 56 40 37 37 32 22 10 13 21 15 14 22 26 34 39 45 50 51 57 68 84 78 72 73 75 78
27 2 9 28 55 60 61 55 51 38 42 36 22 13 9 9 8 4 9 18 28 33 45 53 52 63 71 70 80 74 81 82
29 19 15 19 25 31 51 57 54 52 45 22 26 26 44 48 41 36 37 20 22 32 35 42 43 48 55 67 76 80 85 92
29 25 20 30 44 41 37 36 36 46 34 32 37 27 31 31 32 36 41 42 32 29 35 40 40 40 46 55 59 72 85 90
12 13 33 23 20 50 48 40 40 35 31 30 32 41 47 46 49 53 55 48 41 40 34 34 38 40 44 44 56 72 75 76
22 27 21 12 9 15 20 33 34 36 27 38 46 49 52 49 50 53 59 58 50 45 44 42 40 43 41 49 54 61 76 76
15 33 37 8 37 17 11 21 23 10 17 12 20 28 26 39 46 45 50 54 58 60 53 49 53 43 46 53 58 66 68 71
27 25 18 22 13 5 25 10 15 2 8 12 12 16 38 52 56 49 43 40 43 45 50 53 44 43 44 50 59 63 52 55
30 35 44 23 24 29 21 22 27 27 29 30 34 33 38 46 57 57 59 57 52 49 43 37 44 45 43 54 50 48 48 49
22 23 24 21 30 35 35 43 42 49 42 43 50 49 46 53 56 57 52 46 40 36 31 39 44 42 41 43 47 47 45 48
30 37 45 47 46 54 51 53 59 56 63 55 65 65 59 57 59 51 44 37 29 24 27 30 37 38 41 40 42 43 41 40
43 45 56 64 51 61 71 62 67 71 69 63 61 75 71 74 61 50 36 30 25 22 22 20 30 25 30 33 36 38 38 38
36 39 38 46 48 45 51 52 49 56 64 67 64 74 68 71 51 26 29 23 22 24 28 26 32 35 28 32 37 36 35 33
54 76 76 62 56 59 64 63 67 62 63 71 73 68 63 37 33 32 32 32 27 25 23 24 24 30 31 34 32 31 28 29
Wind_Direction_500mb
201 197 199 194 213 216 250 192 268 226 218 241 253 220 224 231 224 210 203 205 206 207 207 208 208 210 211 216 228 226 227 228
191 195 210 209 204 214 228 243 241 226 232 226 212 216 219 215 213 207 204 205 208 209 210 211 211 210 213 221 227 228 226 229
182 201 195 201 201 213 225 230 218 235 235 211 230 211 216 212 211 205 201 202 206 209 212 214 213 213 213 217 226 230 229 230
203 198 211 203 205 201 214 210 239 278 261 115 226 215 215 215 209 212 209 207 207 210 212 212 213 213 216 215 216 223 229 229
187 202 204 217 202 209 217 229 211 220 214 124 117 156 212 227 224 217 220 223 221 217 213 213 214 215 215 216 217 217 218 224
214 211 199 213 209 214 212 222 225 211 234 163 206 143 148 169 200 219 219 229 230 231 223 219 218 218 217 218 219 217 216 216
249 288 287 238 215 210 218 222 227 228 214 238 250 228 234 296 315 341 222 235 230 226 223 222 220 221 223 220 218 213 220 220
245 217 226 239 231 240 235 225 233 240 246 222 219 290 270 267 288 284 272 266 265 239 226 224 219 224 222 224 221 215 216 226
229 212 240 243 224 220 227 232 238 236 243 248 257 247 257 275 285 293 286 276 260 249 239 231 237 232 234 242 220 218 220 228
248 186 236 246 214 209 224 229 228 245 253 256 249 248 254 256 264 269 273 272 261 253 251 248 246 248 244 224 228 224 230 231
236 226 281 213 163 217 216 229 233 247 253 246 246 250 254 259 260 260 259 261 264 262 264 262 255 254 236 226 218 220 228 231
216 239 232 240 227 202 290 258 255 221 243 282 262 246 249 253 254 268 265 265 266 268 268 264 260 252 235 224 218 234 232 231
228 249 248 262 87 317 194 75 57 132 306 315 302 315 305 298 291 286 287 287 280 276 268 255 251 246 229 221 225 239 226 224
232 242 239 262 289 235 10 334 324 315 312 311 305 300 297 300 298 292 282 282 277 278 262 250 239 240 234 239 242 225 220 219
215 228 264 275 258 296 308 305 304 305 305 307 300 300 300 303 304 295 286 282 272 260 248 239 238 236 234 237 224 215 210 214
265 258 267 271 272 277 285 289 294 292 296 297 298 301 300 302 302 293 281 266 262 246 236 234 236 229 224 223 213 209 211 211
259 258 264 265 266 271 275 280 284 287 287 289 292 292 301 302 299 288 262 251 242 223 219 209 212 200 200 196 186 188 190 193
250 263 267 264 258 263 268 276 280 282 284 283 282 284 292 291 287 263 236 211 193 181 185 170 168 169 160 176 185 184 182 181
258 259 259 262 261 262 264 266 271 276 274 277 278 276 283 256 255 239 204 165 151 146 136 121 124 137 141 146 153 161 163 174
Wind_Speed_850mb
40 45 48 50 51 55 23 11 16 29 38 32 27 42 51 57 47 48 55 65 72 77 80 77 76 82 89 95 92 89 89 88
49 54 51 40 51 42 30 33 38 25 38 26 44 45 43 46 53 52 56 61 68 69 75 80 79 80 84 90 89 91 92 92
46 52 57 45 36 48 35 33 24 22 25 32 36 34 46 45 58 55 54 57 63 68 70 77 78 73 80 83 90 89 87 93
52 39 51 56 48 57 27 45 38 29 16 13 13 32 36 44 54 54 53 52 54 57 58 62 72 76 79 82 82 89 93 89
29 41 46 56 56 50 49 32 42 34 11 15 13 2 8 21 33 43 43 42 45 46 52 59 65 74 76 77 83 79 80 90
37 34 38 55 59 56 56 40 37 37 32 22 10 13 21 15 14 22 26 34 39 45 50 51 57 68 84 78 72 73 75 78
27 2 9 28 55 60 61 55 51 38 42 36 22 13 9 9 8 4 9 18 28 33 45 53 52 63 71 70 80 74 81 82
29 19 15 19 25 31 51 57 54 52 45 22 26 26 44 48 41 36 37 20 22 32 35 42 43 48 55 67 76 80 85 92
29 25 20 30 44 41 37 36 36 46 34 32 37 27 31 31 32 36 41 42 32 29 35 40 40 40 46 55 59 72 85 90
12 13 33 23 20 50 48 40 40 35 31 30 32 41 47 46 49 53 55 48 41 40 34 34 38 40 44 44 56 72 75 76
22 27 21 12 9 15 20 33 34 36 27 38 46 49 52 49 50 53 59 58 50 45 44 42 40 43 41 49 54 61 76 76
15 33 37 8 37 17 11 21 23 10 17 12 20 28 26 39 46 45 50 54 58 60 53 49 53 43 46 53 58 66 68 71
27 25 18 22 13 5 25 10 15 2 8 12 12 16 38 52 56 49 43 40 43 45 50 53 44 43 44 50 59 63 52 55
30 35 44 23 24 29 21 22 27 27 29 30 34 33 38 46 57 57 59 57 52 49 43 37 44 45 43 54 50 48 48 49
22 23 24 21 30 35 35 43 42 49 42 43 50 49 46 53 56 57 52 46 40 36 31 39 44 42 41 43 47 47 45 48
30 37 45 47 46 54 51 53 59 56 63 55 65 65 59 57 59 51 44 37 29 24 27 30 37 38 41 40 42 43 41 40
43 45 56 64 51 61 71 62 67 71 69 63 61 75 71 74 61 50 36 30 25 22 22 20 30 25 30 33 36 38 38 38
36 39 38 46 48 45 51 52 49 56 64 67 64 74 68 71 51 26 29 23 22 24 28 26 32 35 28 32 37 36 35 33
54 76 76 62 56 59 64 63 67 62 63 71 73 68 63 37 33 32 32 32 27 25 23 24 24 30 31 34 32 31 28 29
Wind_Direction_850mb
201 197 199 194 213 216 250 192 268 226 218 241 253 220 224 231 224 210 203 205 206 207 207 208 208 210 211 216 228 226 227 228
191 195 210 209 204 214 228 243 241 226 232 226 212 216 219 215 213 207 204 205 208 209 210 211 211 210 213 221 227 228 226 229
182 201 195 201 201 213 225 230 218 235 235 211 230 211 216 212 211 205 201 202 206 209 212 214 213 213 213 217 226 230 229 230
203 198 211 203 205 201 214 210 239 278 261 115 226 215 215 215 209 212 209 207 207 210 212 212 213 213 216 215 216 223 229 229
187 202 204 217 202 209 217 229 211 220 214 124 117 156 212 227 224 217 220 223 221 217 213 213 214 215 215 216 217 217 218 224
214 211 199 213 209 214 212 222 225 211 234 163 206 143 148 169 200 219 219 229 230 231 223 219 218 218 217 218 219 217 216 216
249 288 287 238 215 210 218 222 227 228 214 238 250 228 234 296 315 341 222 235 230 226 223 222 220 221 223 220 218 213 220 220
245 217 226 239 231 240 235 225 233 240 246 222 219 290 270 267 288 284 272 266 265 239 226 224 219 224 222 224 221 215 216 226
229 212 240 243 224 220 227 232 238 236 243 248 257 247 257 275 285 293 286 276 260 249 239 231 237 232 234 242 220 218 220 228
248 186 236 246 214 209 224 229 228 245 253 256 249 248 254 256 264 269 273 272 261 253 251 248 246 248 244 224 228 224 230 231
236 226 281 213 163 217 216 229 233 247 253 246 246 250 254 259 260 260 259 261 264 262 264 262 255 254 236 226 218 220 228 231
216 239 232 240 227 202 290 258 255 221 243 282 262 246 249 253 254 268 265 265 266 268 268 264 260 252 235 224 218 234 232 231
228 249 248 262 87 317 194 75 57 132 306 315 302 315 305 298 291 286 287 287 280 276 268 255 251 246 229 221 225 239 226 224
232 242 239 262 289 235 10 334 324 315 312 311 305 300 297 300 298 292 282 282 277 278 262 250 239 240 234 239 242 225 220 219
215 228 264 275 258 296 308 305 304 305 305 307 300 300 300 303 304 295 286 282 272 260 248 239 238 236 234 237 224 215 210 214
265 258 267 271 272 277 285 289 294 292 296 297 298 301 300 302 302 293 281 266 262 246 236 234 236 229 224 223 213 209 211 211
259 258 264 265 266 271 275 280 284 287 287 289 292 292 301 302 299 288 262 251 242 223 219 209 212 200 200 196 186 188 190 193
250 263 267 264 258 263 268 276 280 282 284 283 282 284 292 291 287 263 236 211 193 181 185 170 168 169 160 176 185 184 182 181
258 259 259 262 261 262 264 266 271 276 274 277 278 276 283 256 255 239 204 165 151 146 136 121 124 137 141 146 153 161 163 174